SCP
0 0 -0 0 -0 -0 -0 0 0 0 0 0 0 0 -0 -0 0 0 0 -0 -0 -0 -0 -0 -0 -0 0 -0 0 0 0 0
0 0 -0 -0 0 0 0 -0 0 0 0 0 0 -0 0 0 0 0 0 0 -0 -0 -0 0 0 0 0 0 0 0 0 0
0 0 0 0 0 0 0 0 0 0 0 0 0 0 0 0 0 0 0 0 -0 0 0 0 0 0 0 0 0 0 0 0
0 0 0 0 0 -0 0 0 0 0 0 0 0 0 0 0 0 0 0 0 0 0 0 0 0 0 0 0 0 0 1 1
-0 0 0 0 0 0 -0 0 0 0 0 0 0 0 0 0 0 0 0 0 0 0 0 0 1 1 1 0 1 1 1 1
-0 0 0 -0 0 0 0 0 0 -0 -0 0 0 0 0 0 0 0 0 0 0 0 0 0 0 1 1 1 1 2 1 2
0 0 0 0 0 0 0 0 0 0 0 0 -0 0 0 0 0 0 0 0 0 1 0 -0 0 0 0 0 1 1 1 1
0 0 0 0 0 0 0 0 0 0 0 -0 0 -0 -0 0 -0 0 0 0 1 0 -1 0 0 0 0 0 -0 0 1 -0
0 0 0 0 0 0 0 0 0 0 0 0 0 0 0 -0 -0 -0 0 0 -0 -0 -0 0 -0 0 -0 0 0 0 -0 -0
0 0 0 0 0 0 0 0 0 0 0 0 0 0 0 -0 -0 0 0 0 0 -0 0 0 -0 -0 0 0 0 0 0 -0
0 0 0 0 0 0 0 0 0 0 -0 -0 0 0 0 0 0 0 0 0 0 0 0 0 -0 -0 0 1 0 0 -0 -0
0 0 0 0 0 0 0 0 1 1 0 0 0 0 1 0 -0 0 0 0 0 -0 -0 0 0 0 0 -0 -0 -0 -0 0
0 0 0 0 0 0 0 0 1 1 1 0 0 0 0 -0 0 1 0 0 0 0 0 0 0 0 0 0 0 0 -0 0
0 0 0 0 0 1 1 0 0 1 0 0 0 0 1 1 1 1 0 0 1 1 1 0 0 0 0 0 0 0 0 0
0 0 0 0 0 0 0 0 0 -0 0 0 0 0 0 1 1 1 1 1 0 1 1 1 1 0 1 1 1 1 1 1
0 0 0 0 0 0 0 0 0 0 0 0 0 0 1 0 1 1 1 0 0 1 1 1 1 0 1 1 1 1 0 0
0 0 0 0 0 0 0 0 0 0 0 0 0 0 1 1 1 0 0 0 0 0 1 1 1 1 1 0 0 0 0 0
0 1 0 0 0 0 0 0 0 0 0 0 0 0 1 1 0 0 0 1 1 1 2 1 1 1 1 0 0 0 0 0
0 0 0 0 0 0 -0 -0 0 0 0 0 1 1 0 0 0 0 0 0 1 0 1 1 1 1 0 0 0 0 0 0
Wind_Speed_500mb
13 27 28 26 26 33 37 16 18 12 10 16 28 16 19 17 10 17 27 43 47 48 44 42 44 46 48 47 46 44 34 27
21 19 28 32 21 25 22 31 31 26 19 19 15 23 19 18 10 15 21 33 41 43 42 36 37 39 39 41 44 40 31 25
16 26 30 23 26 22 22 26 27 24 19 9 9 19 20 23 9 7 19 31 41 44 41 29 33 39 38 38 39 38 35 27
19 16 10 20 39 36 19 30 23 25 25 22 16 26 21 24 4 3 6 24 36 43 39 35 33 32 34 35 34 33 38 29
19 20 18 20 27 28 30 25 23 19 20 17 14 27 26 19 9 7 10 21 29 37 40 36 32 35 37 38 43 43 31 26
17 15 12 37 31 27 33 25 27 28 25 23 26 21 19 14 13 16 15 24 30 35 38 36 42 49 53 46 41 40 32 28
17 15 16 23 29 37 31 31 31 24 8 18 23 19 21 15 16 14 15 29 35 41 47 51 48 47 44 50 47 33 13 28
24 10 15 24 31 30 30 27 19 24 22 25 21 28 19 16 2 20 25 32 40 48 51 53 51 48 58 63 43 11 41 43
28 7 17 21 29 32 32 25 25 24 18 23 27 27 22 15 4 21 35 40 48 50 57 53 55 64 63 52 37 27 20 21
22 24 27 27 10 12 25 24 23 20 23 27 33 37 31 14 9 19 35 46 53 54 54 54 57 70 61 40 32 27 23 24
19 24 30 33 13 14 19 25 22 24 29 31 32 27 41 5 5 19 34 46 54 52 53 57 62 71 61 36 22 27 28 36
22 18 30 28 20 17 12 23 28 34 30 32 35 21 13 16 5 23 33 44 54 57 55 58 62 63 55 38 29 31 34 40
20 20 18 16 16 9 19 12 37 35 27 28 17 12 19 8 5 15 25 35 46 52 58 59 59 55 45 33 35 31 34 40
12 12 24 26 3 16 26 28 32 27 21 22 17 11 8 5 1 14 25 32 35 40 42 52 55 50 36 36 36 37 38 45
7 10 5 20 15 26 26 25 22 23 16 14 11 10 7 11 10 15 29 31 33 36 39 40 45 31 25 31 37 41 46 51
6 12 17 12 14 16 14 18 22 21 17 12 7 5 6 9 16 25 25 34 34 40 43 39 29 23 31 44 47 45 46 48
15 14 12 8 12 23 17 18 16 11 10 13 13 4 14 16 18 23 29 31 34 41 40 31 28 26 32 40 45 52 50 45
5 10 7 10 26 31 21 13 15 12 9 5 5 10 19 20 19 22 27 31 37 38 34 30 34 30 30 31 39 46 49 41
23 14 21 34 35 24 21 19 17 21 15 6 3 13 20 21 24 24 27 31 34 37 40 31 32 35 37 38 36 38 39 39
Wind_Direction_500mb
230 212 236 196 233 247 266 244 281 269 217 256 257 295 272 279 251 203 197 197 198 199 198 201 195 192 196 201 200 202 206 208
162 213 227 257 267 210 231 254 240 251 240 275 283 305 308 342 316 215 188 194 197 194 195 197 192 191 188 197 200 201 197 212
185 199 200 199 233 239 273 224 257 252 250 261 316 298 326 322 338 322 195 190 190 187 191 180 178 184 184 186 194 197 199 200
226 141 269 273 213 231 223 229 240 277 287 303 287 289 291 302 347 330 227 192 185 183 174 161 159 167 175 177 175 180 196 202
213 192 203 236 235 254 253 254 277 271 274 290 284 287 277 277 286 217 190 179 178 171 167 160 148 157 166 166 172 181 184 193
300 351 329 204 226 227 251 239 245 248 269 298 299 278 290 269 261 239 179 170 168 166 162 160 167 173 177 173 177 173 186 202
280 294 271 266 251 221 245 252 273 291 291 301 305 306 332 334 311 207 165 163 159 151 151 168 173 174 162 163 159 157 188 209
281 236 265 249 240 236 225 240 248 271 290 280 311 301 320 343 54 171 161 164 153 149 158 165 167 162 162 156 155 180 255 243
275 275 289 253 237 233 238 219 239 253 273 316 302 308 337 338 255 175 159 157 151 153 161 168 158 157 152 162 184 215 232 216
275 276 254 273 36 302 246 218 243 269 285 292 299 287 300 307 259 174 167 160 155 159 161 166 167 165 169 173 178 190 189 178
274 260 258 264 269 239 229 238 243 249 269 290 293 294 289 106 186 177 173 166 163 166 165 165 175 178 181 185 190 204 183 174
271 278 278 294 29 353 321 256 5 353 334 335 334 282 49 25 109 168 172 174 170 170 170 172 178 182 181 180 215 204 185 184
253 264 280 31 6 350 252 321 345 343 339 331 311 349 332 337 190 183 183 179 172 174 175 175 174 178 182 193 194 185 173 180
231 280 275 23 248 322 340 323 329 332 339 332 326 333 346 355 18 169 167 169 170 165 171 171 172 172 180 186 185 171 166 164
309 348 55 331 324 307 310 314 330 321 306 331 320 360 31 62 93 146 153 159 164 163 165 164 169 172 176 186 168 171 166 173
291 137 356 68 41 10 350 320 313 307 276 296 299 8 110 127 146 147 143 147 153 158 155 159 178 185 193 173 169 172 166 170
246 250 145 123 10 350 341 340 337 323 264 281 266 241 153 136 144 154 154 155 158 166 167 161 152 164 165 173 170 166 166 167
326 67 316 332 327 316 299 313 355 321 287 346 282 196 160 143 149 159 165 171 174 179 169 173 159 154 162 168 168 163 160 160
267 286 293 296 299 300 264 241 301 311 268 229 174 175 164 162 169 171 159 167 179 184 187 179 162 168 172 162 168 163 160 162
Wind_Speed_850mb
13 27 28 26 26 33 37 16 18 12 10 16 28 16 19 17 10 17 27 43 47 48 44 42 44 46 48 47 46 44 34 27
21 19 28 32 21 25 22 31 31 26 19 19 15 23 19 18 10 15 21 33 41 43 42 36 37 39 39 41 44 40 31 25
16 26 30 23 26 22 22 26 27 24 19 9 9 19 20 23 9 7 19 31 41 44 41 29 33 39 38 38 39 38 35 27
19 16 10 20 39 36 19 30 23 25 25 22 16 26 21 24 4 3 6 24 36 43 39 35 33 32 34 35 34 33 38 29
19 20 18 20 27 28 30 25 23 19 20 17 14 27 26 19 9 7 10 21 29 37 40 36 32 35 37 38 43 43 31 26
17 15 12 37 31 27 33 25 27 28 25 23 26 21 19 14 13 16 15 24 30 35 38 36 42 49 53 46 41 40 32 28
17 15 16 23 29 37 31 31 31 24 8 18 23 19 21 15 16 14 15 29 35 41 47 51 48 47 44 50 47 33 13 28
24 10 15 24 31 30 30 27 19 24 22 25 21 28 19 16 2 20 25 32 40 48 51 53 51 48 58 63 43 11 41 43
28 7 17 21 29 32 32 25 25 24 18 23 27 27 22 15 4 21 35 40 48 50 57 53 55 64 63 52 37 27 20 21
22 24 27 27 10 12 25 24 23 20 23 27 33 37 31 14 9 19 35 46 53 54 54 54 57 70 61 40 32 27 23 24
19 24 30 33 13 14 19 25 22 24 29 31 32 27 41 5 5 19 34 46 54 52 53 57 62 71 61 36 22 27 28 36
22 18 30 28 20 17 12 23 28 34 30 32 35 21 13 16 5 23 33 44 54 57 55 58 62 63 55 38 29 31 34 40
20 20 18 16 16 9 19 12 37 35 27 28 17 12 19 8 5 15 25 35 46 52 58 59 59 55 45 33 35 31 34 40
12 12 24 26 3 16 26 28 32 27 21 22 17 11 8 5 1 14 25 32 35 40 42 52 55 50 36 36 36 37 38 45
7 10 5 20 15 26 26 25 22 23 16 14 11 10 7 11 10 15 29 31 33 36 39 40 45 31 25 31 37 41 46 51
6 12 17 12 14 16 14 18 22 21 17 12 7 5 6 9 16 25 25 34 34 40 43 39 29 23 31 44 47 45 46 48
15 14 12 8 12 23 17 18 16 11 10 13 13 4 14 16 18 23 29 31 34 41 40 31 28 26 32 40 45 52 50 45
5 10 7 10 26 31 21 13 15 12 9 5 5 10 19 20 19 22 27 31 37 38 34 30 34 30 30 31 39 46 49 41
23 14 21 34 35 24 21 19 17 21 15 6 3 13 20 21 24 24 27 31 34 37 40 31 32 35 37 38 36 38 39 39
Wind_Direction_850mb
230 212 236 196 233 247 266 244 281 269 217 256 257 295 272 279 251 203 197 197 198 199 198 201 195 192 196 201 200 202 206 208
162 213 227 257 267 210 231 254 240 251 240 275 283 305 308 342 316 215 188 194 197 194 195 197 192 191 188 197 200 201 197 212
185 199 200 199 233 239 273 224 257 252 250 261 316 298 326 322 338 322 195 190 190 187 191 180 178 184 184 186 194 197 199 200
226 141 269 273 213 231 223 229 240 277 287 303 287 289 291 302 347 330 227 192 185 183 174 161 159 167 175 177 175 180 196 202
213 192 203 236 235 254 253 254 277 271 274 290 284 287 277 277 286 217 190 179 178 171 167 160 148 157 166 166 172 181 184 193
300 351 329 204 226 227 251 239 245 248 269 298 299 278 290 269 261 239 179 170 168 166 162 160 167 173 177 173 177 173 186 202
280 294 271 266 251 221 245 252 273 291 291 301 305 306 332 334 311 207 165 163 159 151 151 168 173 174 162 163 159 157 188 209
281 236 265 249 240 236 225 240 248 271 290 280 311 301 320 343 54 171 161 164 153 149 158 165 167 162 162 156 155 180 255 243
275 275 289 253 237 233 238 219 239 253 273 316 302 308 337 338 255 175 159 157 151 153 161 168 158 157 152 162 184 215 232 216
275 276 254 273 36 302 246 218 243 269 285 292 299 287 300 307 259 174 167 160 155 159 161 166 167 165 169 173 178 190 189 178
274 260 258 264 269 239 229 238 243 249 269 290 293 294 289 106 186 177 173 166 163 166 165 165 175 178 181 185 190 204 183 174
271 278 278 294 29 353 321 256 5 353 334 335 334 282 49 25 109 168 172 174 170 170 170 172 178 182 181 180 215 204 185 184
253 264 280 31 6 350 252 321 345 343 339 331 311 349 332 337 190 183 183 179 172 174 175 175 174 178 182 193 194 185 173 180
231 280 275 23 248 322 340 323 329 332 339 332 326 333 346 355 18 169 167 169 170 165 171 171 172 172 180 186 185 171 166 164
309 348 55 331 324 307 310 314 330 321 306 331 320 360 31 62 93 146 153 159 164 163 165 164 169 172 176 186 168 171 166 173
291 137 356 68 41 10 350 320 313 307 276 296 299 8 110 127 146 147 143 147 153 158 155 159 178 185 193 173 169 172 166 170
246 250 145 123 10 350 341 340 337 323 264 281 266 241 153 136 144 154 154 155 158 166 167 161 152 164 165 173 170 166 166 167
326 67 316 332 327 316 299 313 355 321 287 346 282 196 160 143 149 159 165 171 174 179 169 173 159 154 162 168 168 163 160 160
267 286 293 296 299 300 264 241 301 311 268 229 174 175 164 162 169 171 159 167 179 184 187 179 162 168 172 162 168 163 160 162